Tracking 32139 objects as of 18-Nov-2025
HD Live streaming from Space Station
objects crossing your sky now

STARLINK-34868

Track STARLINK-34868 now!
10-day predictions
STARLINK-34868 is classified as:


NORAD ID: 65648
Int'l Code: 2025-210AC
Perigee: 481.5 km
Apogee: 483.2 km
Inclination: 53.2 °
Period: 94.1 minutes
Semi major axis: 6853 km
RCS: Unknown
Launch date: September 18, 2025
Source: United States (US)
Launch site: AIR FORCE EASTERN TEST RANGE (AFETR)
Your satellite tracking list
Your tracking list is empty




NASA's NSSDC Master Catalog

Two Line Element Set (TLE):
1 65648U 25210AC  25321.69868735  .00017540  00000-0  60288-3 0  9998
2 65648  53.1586 107.3375 0001197  81.0437 279.0699 15.30202480 10587
Source of the keplerian elements: AFSPC